sat.trackr.live / text

‹ back to catalog

YUNHAI-1 03

NORAD 53877 · 2022-115A

PAYLOAD ACTIVE UNKNOWN

§ Identity

Operator
Country
PRC
Launch date
2022-09-20
Launch site
JSC
Launch vehicle
Mass (kg)
RCS (m²)

External: N2YO · Heavens-Above · Gunter

§ Orbital elements

Epoch: 2026-09-20T22:31:38.528832Z

Period
100.52 min
Inclination
98.5609°
Eccentricity
0.0005486
Mean motion
14.32546858 rev/d
Perigee alt
779.3 km
Apogee alt
787.2 km
Semi-major
7,161.4 km
B*
1.0105e-4
RAAN
260.8898°
Arg perigee
110.8285°
Mean anomaly
249.3487°
Rev number
20,922

§ Raw data

YUNHAI-1 031 53877U 22115A   26263.93864038  .00000230  00000+0  10105-3 0  99952 53877  98.5609 260.8898 0005486 110.8285 249.3487 14.32546858209226

JSON: /api/v1/satellites/53877 · /tle

For live sub-satellite position, see the globe view (requires WebGL).

§ Visibility from observer

Set your observer location to see the next 7 days of passes ≥ 10°. The values pass through the URL so the page stays shareable.

No JS? Fill the form by hand. The geolocation button needs JavaScript.

§ Radio — SatNOGS DB

ModeDescriptionDownlinkUplink
FM Mode L 1.704 GHz

1 transmitter · refreshed weekly from db.satnogs.org